Weather History for Watsonville, CA

Change the Weather History Date:

Monday, April 1, 2013

  Actual Average Record
Temperature  
Mean Temperature 56 °F 54 °F  
Max Temperature 63 °F 65 °F 83 °F (1987)
Min Temperature 49 °F 43 °F 34 °F (1999)
Degree Days  
Heating Degree Days 9    
Month to date heating degree days 9  
Since 1 July heating degree days 2528  
Cooling Degree Days 0    
Month to date cooling degree days 0  
Year to date cooling degree days 0  
Growing Degree Days 6 (Base 50)    
Moisture  
Dew Point 51 °F    
Average Humidity 78    
Maximum Humidity 96    
Minimum Humidity 60    
Precipitation  
Precipitation 0.20 in - 1.30 in (1958)
Month to date precipitation 0.20  
Year to date precipitation 1.94  
Since 1 July precipitation 12.88  
Sea Level Pressure  
Sea Level Pressure 30.14 in    
Wind  
Wind Speed 3 mph (SSW)    
Max Wind Speed 13 mph    
Max Gust Speed 16 mph    
Visibility 9 miles    
Events Rain    
T = Trace of Precipitation, MM = Missing Value Source: NWS Daily Summary

Daily Weather History Graph

Daily Weather History Graph

Search for Another Location

Airport:

Trip Planner

Search our weather history database for the weather conditions in past years. The results will help you decide how hot, cold, wet, or windy it might be!

Date:

Astronomy

Apr. 01, 2013 Rise Set
Actual Time 6:52 AM PDT 7:29 PM PDT
Civil Twilight 6:26 AM PDT 7:56 PM PDT
Nautical Twilight 5:55 AM PDT 8:26 PM PDT
Astronomical Twilight 5:23 AM PDT 8:58 PM PDT
Moon 12:37 AM PDT (4/1) 10:51 AM PDT (4/1)
Length of Visible Light 13h 29m
Length of Day
12h 37m
Waning Gibbous, 66% of the Moon is Illuminated
Apr 1
Waning Gibbous
Apr 2
Last Quarter
Apr 10
New
Apr 18
First Quarter
Apr 25
Full

Hourly Weather History & Observations

Time (PDT) Temp. Dew Point Humidity Pressure Visibility Wind Dir Wind Speed Gust Speed Precip Events Conditions
1:53 AM 55.0 °F 53.1 °F 93% 30.07 in 10.0 mi Calm Calm - 0.00 in Rain Light Rain
2:53 AM 55.0 °F 53.1 °F 93% 30.08 in 8.0 mi Calm Calm - 0.02 in Rain Light Rain
3:33 AM 53.6 °F 53.6 °F 100% 30.09 in 4.0 mi South 3.5 mph - 0.05 in Rain Light Rain
3:51 AM 53.6 °F 51.8 °F 94% 30.09 in 2.5 mi ESE 5.8 mph - 0.10 in Rain Heavy Rain
3:53 AM 54.0 °F 52.0 °F 93% 30.09 in 2.5 mi ESE 6.9 mph - 0.10 in Rain Rain
4:14 AM 53.6 °F 51.8 °F 94% 30.09 in 4.0 mi East 4.6 mph - 0.04 in Rain Rain
5:53 AM 54.0 °F 52.0 °F 93% 30.10 in 10.0 mi Calm Calm - N/A   Overcast
6:16 AM 53.6 °F 51.8 °F 94% 30.10 in 10.0 mi Calm Calm - N/A   Overcast
6:50 AM 53.6 °F 51.8 °F 94% 30.11 in 9.0 mi Calm Calm - N/A   Overcast
6:53 AM 54.0 °F 52.0 °F 93% 30.11 in 10.0 mi Calm Calm - N/A   Overcast
7:29 AM 53.6 °F 51.8 °F 94% 30.12 in 5.0 mi Calm Calm - 0.00 in Rain Light Rain
7:53 AM 54.0 °F 52.0 °F 93% 30.13 in 10.0 mi Calm Calm - 0.00 in Rain Light Rain
8:26 AM 53.6 °F 51.8 °F 94% 30.14 in 1.8 mi SW 3.5 mph - 0.02 in Rain Light Rain
8:33 AM 53.6 °F 51.8 °F 94% 30.14 in 3.0 mi SSW 3.5 mph - 0.02 in Rain Light Rain
8:50 AM 55.4 °F 51.8 °F 88% 30.14 in 9.0 mi SSW 3.5 mph - 0.02 in   Overcast
8:53 AM 55.0 °F 53.1 °F 93% 30.15 in 9.0 mi SSW 4.6 mph - 0.02 in   Overcast
9:07 AM 55.4 °F 53.6 °F 94% 30.15 in 7.0 mi SSW 3.5 mph - N/A   Overcast
9:39 AM 55.4 °F 51.8 °F 88% 30.15 in 10.0 mi South 3.5 mph - 0.00 in   Overcast
9:49 AM 55.4 °F 51.8 °F 88% 30.16 in 10.0 mi SW 4.6 mph - 0.00 in   Overcast
9:53 AM 55.9 °F 52.0 °F 87% 30.16 in 10.0 mi SW 5.8 mph - 0.00 in   Overcast
10:21 AM 57.2 °F 53.6 °F 88% 30.16 in 10.0 mi South 3.5 mph - N/A   Scattered Clouds
10:31 AM 57.2 °F 51.8 °F 82% 30.16 in 10.0 mi SW 3.5 mph - N/A   Mostly Cloudy
10:42 AM 57.2 °F 51.8 °F 82% 30.16 in 10.0 mi SSW 3.5 mph - N/A   Scattered Clouds
10:50 AM 60.8 °F 53.6 °F 77% 30.16 in 10.0 mi SSW 6.9 mph - N/A   Mostly Cloudy
10:53 AM 59.0 °F 53.1 °F 81% 30.17 in 10.0 mi SW 5.8 mph - N/A   Mostly Cloudy
11:03 AM 59.0 °F 51.8 °F 77% 30.17 in 10.0 mi Calm Calm - N/A   Mostly Cloudy
11:53 AM 61.0 °F 51.1 °F 70% 30.17 in 10.0 mi Calm Calm - N/A   Mostly Cloudy
12:45 PM 60.8 °F 48.2 °F 63% 30.16 in 10.0 mi West 5.8 mph - N/A   Overcast
12:53 PM 61.0 °F 48.0 °F 62% 30.16 in 10.0 mi Variable 3.5 mph - N/A   Mostly Cloudy
1:53 PM 62.1 °F 48.9 °F 62% 30.16 in 10.0 mi SSW 9.2 mph - N/A   Clear
3:53 PM 61.0 °F 48.9 °F 64% 30.14 in 10.0 mi SW 9.2 mph - N/A   Clear
4:53 PM 61.0 °F 48.9 °F 64% 30.14 in 10.0 mi WSW 9.2 mph - N/A   Clear
5:53 PM 57.9 °F 51.1 °F 78% 30.15 in 10.0 mi WSW 8.1 mph - N/A   Clear
6:53 PM 55.9 °F 50.0 °F 80% 30.16 in 10.0 mi WSW 6.9 mph - N/A   Clear
7:53 PM 53.1 °F 50.0 °F 89% 30.16 in 10.0 mi WSW 3.5 mph - N/A   Clear
8:53 PM 53.1 °F 50.0 °F 89% 30.18 in 10.0 mi Calm Calm - N/A   Partly Cloudy
9:53 PM 53.1 °F 50.0 °F 89% 30.17 in 10.0 mi Calm Calm - N/A   Scattered Clouds
10:53 PM 51.1 °F 48.9 °F 92% 30.16 in 10.0 mi Calm Calm - N/A   Clear
11:30 PM 51.8 °F 48.2 °F 88% 30.16 in 9.0 mi SSW 4.6 mph - N/A   Mostly Cloudy
11:53 PM 52.0 °F 50.0 °F 93% 30.17 in 9.0 mi Calm Calm - N/A   Overcast